FLOCK 3K-4 (43893 NORAD) Tracking and Keplerian Element Data

This shows tracking and keplerian element data for the satellite.

Feedback or suggestion? Click here.




ElementValue
Catalog43893
NameFLOCK 3K-4
Epoch Orbit392
Epoch Day21.83097485
Epoch Year2019
RAAN291.0268
Inclination97.3
Eccentricity0.002519
Argument of Perigee154.4633
Mean Anonmoly205.7855
Mean Motion15.23400946
Decay Rate5.85E-06
L11 43893U 18111T 19021.83097485 .00000585 00000-0 27328-4 0 9990
L22 43893 97.3000 291.0268 0025190 154.4633 205.7855 15.23400946 3929

Live tracking and technical data element details for FLOCK 3K-4 (NORAD 43893). FLOCK 3K-4 can be tracked NOW for your location showing map with azimuth and elevation plus other details from your city location.

Track the satellite on the map from your city or location and see movement details for azimuth, elevation, latitude, longitude, range, height, and movement on the map or in text.







IsCatalogInMostPopularTable: catalog: 43893, numindb: 20
Update: records affected: 1



GetName: 43893 FLOCK 3K-4

Hit Count: updated at: Wed, 23 Jan 2019 03:23:12 GMT